| time (UTC) | temp F | wind direction | speed MPH | gust MPH | rain 1hr in | rain 24hr in | rain mn in | humidity % | barometer mb |
| 20260503024559 | 50 | 330 | 0.0 | 0.0 | 0.00 | 0.00 | 0.00 | 75 | 1021.5 |
| 20260503023100 | 50 | 330 | 0.0 | 0.0 | 0.00 | 0.00 | 0.00 | 75 | 1021.5 |
| 20260503021556 | 51 | 330 | 0.0 | 0.0 | 0.00 | 0.00 | 0.00 | 75 | 1021.4 |
| 20260503020055 | 51 | 330 | 0.0 | 0.0 | 0.00 | 0.00 | 0.00 | 75 | 1021.5 |
| 20260503014608 | 51 | 329 | 0.0 | 2.0 | 0.00 | 0.00 | 0.00 | 73 | 1021.6 |
| 20260503013051 | 51 | 336 | 0.0 | 1.0 | 0.00 | 0.00 | 0.00 | 72 | 1021.6 |
| 20260503011554 | 52 | 336 | 0.0 | 0.0 | 0.00 | 0.00 | 0.00 | 71 | 1021.6 |
| 20260503010046 | 53 | 336 | 0.0 | 0.0 | 0.00 | 0.00 | 0.00 | 70 | 1021.6 |
| 20260503004544 | 53 | 336 | 0.0 | 2.0 | 0.00 | 0.00 | 0.00 | 69 | 1021.7 |
| 20260503003041 | 54 | 22 | 0.0 | 1.0 | 0.00 | 0.00 | 0.00 | 67 | 1021.7 |
| 20260503001553 | 54 | 23 | 0.0 | 0.0 | 0.00 | 0.00 | 0.00 | 67 | 1021.8 |
| 20260503000035 | 55 | 22 | 0.0 | 4.0 | 0.00 | 0.00 | 0.00 | 65 | 1021.9 |
| 20260502234539 | 56 | 184 | 0.0 | 3.0 | 0.00 | 0.00 | 0.00 | 62 | 1022.0 |
| 20260502233029 | 57 | 184 | 0.0 | 2.0 | 0.00 | 0.00 | 0.00 | 59 | 1021.9 |
| 20260502231526 | 58 | 184 | 1.0 | 3.0 | 0.00 | 0.00 | 0.00 | 57 | 1022.0 |
| 20260502230029 | 59 | 22 | 0.0 | 3.0 | 0.00 | 0.00 | 0.00 | 56 | 1022.0 |
| 20260502224523 | 59 | 189 | 1.0 | 4.0 | 0.00 | 0.00 | 0.00 | 55 | 1022.0 |
| 20260502223019 | 60 | 211 | 1.0 | 4.0 | 0.00 | 0.00 | 0.00 | 53 | 1022.0 |
| 20260502221516 | 62 | 105 | 3.0 | 7.0 | 0.00 | 0.00 | 0.00 | 50 | 1022.0 |
| 20260502220013 | 61 | 216 | 1.0 | 3.0 | 0.00 | 0.00 | 0.00 | 51 | 1022.0 |
| 20260502214513 | 62 | 218 | 3.0 | 5.0 | 0.00 | 0.00 | 0.00 | 49 | 1021.9 |
| 20260502213012 | 62 | 202 | 2.0 | 5.0 | 0.00 | 0.00 | 0.00 | 48 | 1021.8 |
| 20260502211512 | 63 | 229 | 2.0 | 4.0 | 0.00 | 0.00 | 0.00 | 46 | 1021.7 |
| 20260502210011 | 65 | 207 | 1.0 | 12.0 | 0.00 | 0.00 | 0.00 | 44 | 1021.7 |
| 20260502204511 | 65 | 87 | 5.0 | 12.0 | 0.00 | 0.00 | 0.00 | 43 | 1021.6 |
| 20260502203010 | 65 | 120 | 3.0 | 9.0 | 0.00 | 0.00 | 0.00 | 42 | 1021.5 |
| 20260502201510 | 66 | 166 | 2.0 | 9.0 | 0.00 | 0.00 | 0.00 | 40 | 1021.4 |
| 20260502200009 | 69 | 167 | 6.0 | 14.0 | 0.00 | 0.00 | 0.00 | 35 | 1021.4 |
| 20260502194509 | 69 | 189 | 8.0 | 16.0 | 0.00 | 0.00 | 0.00 | 35 | 1021.2 |
| 20260502193008 | 69 | 196 | 10.0 | 17.0 | 0.00 | 0.00 | 0.00 | 34 | 1020.9 |
| 20260502191507 | 69 | 224 | 10.0 | 17.0 | 0.00 | 0.00 | 0.00 | 34 | 1020.7 |
| 20260502190012 | 69 | 140 | 8.0 | 19.0 | 0.00 | 0.00 | 0.00 | 34 | 1020.5 |
| 20260502184518 | 70 | 182 | 10.0 | 21.0 | 0.00 | 0.00 | 0.00 | 34 | 1020.4 |
| 20260502183014 | 70 | 196 | 10.0 | 21.0 | 0.00 | 0.00 | 0.00 | 34 | 1020.1 |
| 20260502181505 | 70 | 208 | 8.0 | 24.0 | 0.00 | 0.00 | 0.00 | 34 | 1019.9 |
| 20260502163105 | 71 | 184 | 8.0 | 18.0 | 0.00 | 0.00 | 0.00 | 34 | 1019.5 |
| 20260502161623 | 72 | 145 | 8.0 | 20.0 | 0.00 | 0.00 | 0.00 | 34 | 1019.6 |
| 20260502151604 | 74 | 200 | 10.0 | 19.0 | 0.00 | 0.00 | 0.00 | 32 | 1020.0 |
| 20260502123034 | 76 | 216 | 5.0 | 11.0 | 0.00 | 0.00 | 0.00 | 30 | 1022.3 |
| 20260502121525 | 75 | 194 | 8.0 | 13.0 | 0.00 | 0.00 | 0.00 | 31 | 1022.7 |
| 20260502114520 | 74 | 123 | 10.0 | 14.0 | 0.00 | 0.00 | 0.00 | 31 | 1023.2 |
| 20260502113016 | 73 | 180 | 5.0 | 10.0 | 0.00 | 0.00 | 0.00 | 34 | 1023.4 |
| 20260502111518 | 72 | 286 | 0.0 | 4.0 | 0.00 | 0.00 | 0.00 | 39 | 1023.8 |
| 20260502110013 | 70 | 221 | 3.0 | 9.0 | 0.00 | 0.00 | 0.00 | 41 | 1024.2 |
| 20260502104504 | 68 | 281 | 3.0 | 7.0 | 0.00 | 0.00 | 0.00 | 43 | 1024.7 |
| 20260502103103 | 67 | 196 | 2.0 | 7.0 | 0.00 | 0.00 | 0.00 | 45 | 1025.0 |
| 20260502101557 | 67 | 267 | 3.0 | 8.0 | 0.00 | 0.00 | 0.00 | 45 | 1025.3 |
| 20260502071520 | 55 | 338 | 3.0 | 5.0 | 0.00 | 0.00 | 0.00 | 64 | 1028.3 |
| 20260502070019 | 54 | 336 | 2.0 | 6.0 | 0.00 | 0.00 | 0.00 | 65 | 1028.5 |
| 20260502064519 | 53 | 28 | 2.0 | 5.0 | 0.00 | 0.00 | 0.00 | 68 | 1028.6 |
| 20260502063026 | 52 | 333 | 3.0 | 5.0 | 0.00 | 0.00 | 0.00 | 72 | 1028.6 |
| 20260502061518 | 51 | 329 | 4.0 | 6.0 | 0.00 | 0.00 | 0.00 | 73 | 1028.8 |
| 20260502060017 | 50 | 348 | 3.0 | 5.0 | 0.00 | 0.00 | 0.00 | 76 | 1029.0 |
| 20260502054517 | 49 | 331 | 1.0 | 3.0 | 0.00 | 0.00 | 0.00 | 78 | 1029.1 |
| 20260502053015 | 47 | 339 | 1.0 | 2.0 | 0.00 | 0.00 | 0.00 | 79 | 1029.1 |
| 20260502051514 | 46 | 339 | 0.0 | 0.0 | 0.00 | 0.00 | 0.00 | 80 | 1029.1 |
| 20260502050014 | 46 | 339 | 0.0 | 0.0 | 0.00 | 0.00 | 0.00 | 80 | 1029.0 |
| 20260502044512 | 45 | 339 | 0.0 | 0.0 | 0.00 | 0.00 | 0.00 | 79 | 1029.0 |
| 20260502043011 | 46 | 339 | 0.0 | 0.0 | 0.00 | 0.00 | 0.00 | 79 | 1028.9 |
| 20260502041510 | 46 | 339 | 0.0 | 0.0 | 0.00 | 0.00 | 0.00 | 79 | 1028.8 |
| 20260502040007 | 46 | 342 | 0.0 | 1.0 | 0.00 | 0.00 | 0.00 | 78 | 1028.7 |
| 20260502034508 | 46 | 342 | 0.0 | 0.0 | 0.00 | 0.00 | 0.00 | 77 | 1028.5 |
| 20260502033003 | 47 | 342 | 0.0 | 0.0 | 0.00 | 0.00 | 0.00 | 76 | 1028.5 |
| 20260502031502 | 47 | 341 | 0.0 | 0.0 | 0.00 | 0.00 | 0.00 | 77 | 1028.3 |
| 20260502030000 | 46 | 340 | 0.0 | 0.0 | 0.00 | 0.00 | 0.00 | 76 | 1028.4 |